This is the latest recevied weather packets stored in our database for station/object W0DXV. If no packets are shown the sender has not sent any weather packets the latest 10 day(s).
| Time | Temp. | Humidity | Pressure | Rain* | Wind** | Luminosity | Snow |
|---|---|---|---|---|---|---|---|
| 1777767257 | 13.33° C | 67% | 1009.2 hPa | 0 mm | - | 1 W/m² | - |
| 1777766955 | 13.33° C | 65% | 1009.1 hPa | 0 mm | - | 2 W/m² | - |
| 1777766651 | 13.89° C | 61% | 1009 hPa | 0 mm | - | 2 W/m² | - |
| 1777766349 | 13.89° C | 59% | 1008.9 hPa | 0 mm | - | 4 W/m² | - |
| 1777766046 | 13.89° C | 58% | 1008.9 hPa | 0 mm | - | 5 W/m² | - |
| 1777765743 | 13.89° C | 61% | 1008.9 hPa | 0 mm | - | 5 W/m² | - |
| 1777765439 | 14.44° C | 58% | 1008.7 hPa | 0 mm | - | 6 W/m² | - |
| 1777765136 | 14.44° C | 58% | 1008.8 hPa | 0 mm | - | 5 W/m² | - |
| 1777764832 | 14.44° C | 55% | 1008.7 hPa | 0 mm | - | 6 W/m² | - |
| 1777764529 | 15° C | 53% | 1008.5 hPa | 0 mm | - | 7 W/m² | - |
| 1777764225 | 15° C | 53% | 1008.5 hPa | 0 mm | - | 11 W/m² | - |
| 1777763922 | 15° C | 53% | 1008.4 hPa | 0 mm | - | 10 W/m² | - |
| 1777763620 | 15.56° C | 51% | 1008.1 hPa | 0 mm | - | 16 W/m² | - |
| 1777763318 | 15.56° C | 49% | 1008.1 hPa | 0 mm | - | 19 W/m² | - |
| 1777763016 | 15.56° C | 45% | 1008.1 hPa | 0 mm | - | 19 W/m² | - |
| 1777762712 | 15.56° C | 49% | 1008.2 hPa | 0 mm | - | 31 W/m² | - |
| 1777762409 | 15.56° C | 53% | 1008 hPa | 0 mm | - | 39 W/m² | - |
| 1777762106 | 15.56° C | 52% | 1008.2 hPa | 0 mm | - | 35 W/m² | - |
| 1777761802 | 15.56° C | 51% | 1008 hPa | 0 mm | - | 58 W/m² | - |
| 1777761500 | 15.56° C | 46% | 1007.9 hPa | 0 mm | - | 71 W/m² | - |
| 1777761198 | 15.56° C | 47% | 1007.9 hPa | 0 mm | - | 86 W/m² | - |
| 1777760895 | 15.56° C | 44% | 1007.8 hPa | 0 mm | - | 66 W/m² | - |
| 1777760592 | 15.56° C | 46% | 1007.8 hPa | 0 mm | - | 40 W/m² | - |
| 1777760288 | 15.56° C | 45% | 1007.9 hPa | 0 mm | - | 38 W/m² | - |
| 1777759984 | 15.56° C | 43% | 1007.9 hPa | 0 mm | - | 39 W/m² | - |
* Rain latest hour (hover to see other rain measurements)
** Current wind speed in m/s (hover to see current wind gust speed)